Year,Month,Day,Hour,Minute,Value (Times are PST for temperature in C)
2014,02,21,00,00,5.20
2014,02,21,00,01,5.20
2014,02,21,00,02,5.20
2014,02,21,00,03,5.20
2014,02,21,00,04,5.20
2014,02,21,00,05,5.20
2014,02,21,00,06,5.20
2014,02,21,00,07,5.20
2014,02,21,00,08,5.20
2014,02,21,00,09,5.20
2014,02,21,00,10,5.20
2014,02,21,00,11,5.20
2014,02,21,00,12,5.20
2014,02,21,00,13,5.20
2014,02,21,00,14,5.10
2014,02,21,00,15,5.10
2014,02,21,00,16,5.10
2014,02,21,00,17,5.10
2014,02,21,00,18,5.10
2014,02,21,00,19,5.10
2014,02,21,00,20,5.10
2014,02,21,00,21,5.10
2014,02,21,00,22,5.10
2014,02,21,00,23,5.00
2014,02,21,00,24,5.10
2014,02,21,00,25,5.10
2014,02,21,00,26,5.10
2014,02,21,00,27,5.10
2014,02,21,00,28,5.10
2014,02,21,00,29,5.10
2014,02,21,00,30,5.10
2014,02,21,00,31,5.20
2014,02,21,00,32,5.20
2014,02,21,00,33,5.20
2014,02,21,00,34,5.20
2014,02,21,00,35,5.20
2014,02,21,00,36,5.20
2014,02,21,00,37,5.20
2014,02,21,00,38,5.10
2014,02,21,00,39,5.10
2014,02,21,00,40,5.10
2014,02,21,00,41,5.10
2014,02,21,00,42,5.10
2014,02,21,00,43,5.10
2014,02,21,00,44,5.10
2014,02,21,00,45,5.00
2014,02,21,00,46,5.00
2014,02,21,00,47,5.00
2014,02,21,00,48,4.90
2014,02,21,00,49,4.90
2014,02,21,00,50,4.90
2014,02,21,00,51,4.90
2014,02,21,00,52,4.90
2014,02,21,00,53,4.90
2014,02,21,00,54,4.80
2014,02,21,00,55,4.80
2014,02,21,00,56,4.80
2014,02,21,00,57,4.80
2014,02,21,00,58,4.80
2014,02,21,00,59,4.80
2014,02,21,01,00,4.80
2014,02,21,01,01,4.80
2014,02,21,01,02,4.80
2014,02,21,01,03,4.70
2014,02,21,01,04,4.70
2014,02,21,01,05,4.70
2014,02,21,01,06,4.70
2014,02,21,01,07,4.60
2014,02,21,01,08,4.60
2014,02,21,01,09,4.60
2014,02,21,01,10,4.60
2014,02,21,01,11,4.50
2014,02,21,01,12,4.50
2014,02,21,01,13,4.50
2014,02,21,01,14,4.50
2014,02,21,01,15,4.50
2014,02,21,01,16,4.40
2014,02,21,01,17,4.40
2014,02,21,01,18,4.40
2014,02,21,01,19,4.40
2014,02,21,01,20,4.40
2014,02,21,01,21,4.30
2014,02,21,01,22,4.30
2014,02,21,01,23,4.30
2014,02,21,01,24,4.30
2014,02,21,01,25,4.30
2014,02,21,01,26,4.30
2014,02,21,01,27,4.40
2014,02,21,01,28,4.40
2014,02,21,01,29,4.40
2014,02,21,01,30,4.40
2014,02,21,01,31,4.40
2014,02,21,01,32,4.40
2014,02,21,01,33,4.40
2014,02,21,01,34,4.40
2014,02,21,01,35,4.40
2014,02,21,01,36,4.40
2014,02,21,01,37,4.40
2014,02,21,01,38,4.40
2014,02,21,01,39,4.40
2014,02,21,01,40,4.40
2014,02,21,01,41,4.40
2014,02,21,01,42,4.40
2014,02,21,01,43,4.40
2014,02,21,01,44,4.40
2014,02,21,01,45,4.40
2014,02,21,01,46,4.40
2014,02,21,01,47,4.30
2014,02,21,01,48,4.30
2014,02,21,01,49,4.30
2014,02,21,01,50,4.30
2014,02,21,01,51,4.30
2014,02,21,01,52,4.20
2014,02,21,01,53,4.20
2014,02,21,01,54,4.20
2014,02,21,01,55,4.20
2014,02,21,01,56,4.20
2014,02,21,01,57,4.10
2014,02,21,01,58,4.10
2014,02,21,01,59,4.10
2014,02,21,02,00,4.10
2014,02,21,02,01,4.10
2014,02,21,02,02,4.00
2014,02,21,02,03,4.00
2014,02,21,02,04,4.00
2014,02,21,02,05,4.00
2014,02,21,02,06,4.00
2014,02,21,02,07,4.00
2014,02,21,02,08,4.00
2014,02,21,02,09,4.00
2014,02,21,02,10,3.90
2014,02,21,02,11,3.90
2014,02,21,02,12,3.90
2014,02,21,02,13,3.90
2014,02,21,02,14,3.90
2014,02,21,02,15,3.90
2014,02,21,02,16,3.90
2014,02,21,02,17,3.80
2014,02,21,02,18,3.80
2014,02,21,02,19,3.80
2014,02,21,02,20,3.80
2014,02,21,02,21,3.80
2014,02,21,02,22,3.80
2014,02,21,02,23,3.80
2014,02,21,02,24,3.70
2014,02,21,02,25,3.70
2014,02,21,02,26,3.70
2014,02,21,02,27,3.70
2014,02,21,02,28,3.70
2014,02,21,02,29,3.70
2014,02,21,02,30,3.70
2014,02,21,02,31,3.70
2014,02,21,02,32,3.60
2014,02,21,02,33,3.60
2014,02,21,02,34,3.60
2014,02,21,02,35,3.50
2014,02,21,02,36,3.50
2014,02,21,02,37,3.40
2014,02,21,02,38,3.40
2014,02,21,02,39,3.30
2014,02,21,02,40,3.30
2014,02,21,02,41,3.20
2014,02,21,02,42,3.20
2014,02,21,02,43,3.10
2014,02,21,02,44,3.10
2014,02,21,02,45,3.10
2014,02,21,02,46,3.00
2014,02,21,02,47,3.00
2014,02,21,02,48,3.00
2014,02,21,02,49,2.90
2014,02,21,02,50,2.90
2014,02,21,02,51,2.90
2014,02,21,02,52,2.80
2014,02,21,02,53,2.80
2014,02,21,02,54,2.70
2014,02,21,02,55,2.70
2014,02,21,02,56,2.70
2014,02,21,02,57,2.60
2014,02,21,02,58,2.60
2014,02,21,02,59,2.50
2014,02,21,03,00,2.50
2014,02,21,03,01,2.40
2014,02,21,03,02,2.40
2014,02,21,03,03,2.30
2014,02,21,03,04,2.30
2014,02,21,03,05,2.30
2014,02,21,03,06,2.20
2014,02,21,03,07,2.20
2014,02,21,03,08,2.20
2014,02,21,03,09,2.10
2014,02,21,03,10,2.10
2014,02,21,03,11,2.10
2014,02,21,03,12,2.00
2014,02,21,03,13,2.00
2014,02,21,03,14,1.90
2014,02,21,03,15,1.90
2014,02,21,03,16,1.90
2014,02,21,03,17,1.80
2014,02,21,03,18,1.80
2014,02,21,03,19,1.80
2014,02,21,03,20,1.80
2014,02,21,03,21,1.70
2014,02,21,03,22,1.70
2014,02,21,03,23,1.70
2014,02,21,03,24,1.70
2014,02,21,03,25,1.60
2014,02,21,03,26,1.60
2014,02,21,03,27,1.60
2014,02,21,03,28,1.60
2014,02,21,03,29,1.50
2014,02,21,03,30,1.50
2014,02,21,03,31,1.50
2014,02,21,03,32,1.40
2014,02,21,03,33,1.40
2014,02,21,03,34,1.40
2014,02,21,03,35,1.40
2014,02,21,03,36,1.30
2014,02,21,03,37,1.30
2014,02,21,03,38,1.30
2014,02,21,03,39,1.30
2014,02,21,03,40,1.30
2014,02,21,03,41,1.20
2014,02,21,03,42,1.20
2014,02,21,03,43,1.20
2014,02,21,03,44,1.20
2014,02,21,03,45,1.20
2014,02,21,03,46,1.20
2014,02,21,03,47,1.20
2014,02,21,03,48,1.10
2014,02,21,03,49,1.10
2014,02,21,03,50,1.10
2014,02,21,03,51,1.10
2014,02,21,03,52,1.10
2014,02,21,03,53,1.10
2014,02,21,03,54,1.10
2014,02,21,03,55,1.10
2014,02,21,03,56,1.10
2014,02,21,03,57,1.00
2014,02,21,03,58,1.00
2014,02,21,03,59,1.00
2014,02,21,04,00,1.00
2014,02,21,04,01,1.00
2014,02,21,04,02,0.90
2014,02,21,04,03,0.90
2014,02,21,04,04,0.90
2014,02,21,04,05,0.90
2014,02,21,04,06,0.90
2014,02,21,04,07,0.90
2014,02,21,04,08,0.90
2014,02,21,04,09,0.80
2014,02,21,04,10,0.80
2014,02,21,04,11,0.80
2014,02,21,04,12,0.80
2014,02,21,04,13,0.80
2014,02,21,04,14,0.80
2014,02,21,04,15,0.80
2014,02,21,04,16,0.80
2014,02,21,04,17,0.80
2014,02,21,04,18,0.80
2014,02,21,04,19,0.80
2014,02,21,04,20,0.80
2014,02,21,04,21,0.80
2014,02,21,04,22,0.70
2014,02,21,04,23,0.70
2014,02,21,04,24,0.70
2014,02,21,04,25,0.70
2014,02,21,04,26,0.70
2014,02,21,04,27,0.70
2014,02,21,04,28,0.70
2014,02,21,04,29,0.70
2014,02,21,04,30,0.60
2014,02,21,04,31,0.60
2014,02,21,04,32,0.60
2014,02,21,04,33,0.60
2014,02,21,04,34,0.60
2014,02,21,04,35,0.50
2014,02,21,04,36,0.50
2014,02,21,04,37,0.50
2014,02,21,04,38,0.50
2014,02,21,04,39,0.50
2014,02,21,04,40,0.50
2014,02,21,04,41,0.50
2014,02,21,04,42,0.50
2014,02,21,04,43,0.50
2014,02,21,04,44,0.50
2014,02,21,04,45,0.50
2014,02,21,04,46,0.50
2014,02,21,04,47,0.50
2014,02,21,04,48,0.50
2014,02,21,04,49,0.50
2014,02,21,04,50,0.40
2014,02,21,04,51,0.40
2014,02,21,04,52,0.40
2014,02,21,04,53,0.40
2014,02,21,04,54,0.40
2014,02,21,04,55,0.40
2014,02,21,04,56,0.40
2014,02,21,04,57,0.40
2014,02,21,04,58,0.40
2014,02,21,04,59,0.40
2014,02,21,05,00,0.50
2014,02,21,05,01,0.50
2014,02,21,05,02,0.50
2014,02,21,05,03,0.60
2014,02,21,05,04,0.60
2014,02,21,05,05,0.60
2014,02,21,05,06,0.60
2014,02,21,05,07,0.70
2014,02,21,05,08,0.70
2014,02,21,05,09,0.70
2014,02,21,05,10,0.70
2014,02,21,05,11,0.70
2014,02,21,05,12,0.70
2014,02,21,05,13,0.70
2014,02,21,05,14,0.70
2014,02,21,05,15,0.70
2014,02,21,05,16,0.70
2014,02,21,05,17,0.70
2014,02,21,05,18,0.70
2014,02,21,05,19,0.70
2014,02,21,05,20,0.70
2014,02,21,05,21,0.70
2014,02,21,05,22,0.70
2014,02,21,05,23,0.70
2014,02,21,05,24,0.70
2014,02,21,05,25,0.70
2014,02,21,05,26,0.60
2014,02,21,05,27,0.60
2014,02,21,05,28,0.60
2014,02,21,05,29,0.60
2014,02,21,05,30,0.60
2014,02,21,05,31,0.60
2014,02,21,05,32,0.70
2014,02,21,05,33,0.70
2014,02,21,05,34,0.70
2014,02,21,05,35,0.70
2014,02,21,05,36,0.80
2014,02,21,05,37,0.80
2014,02,21,05,38,0.80
2014,02,21,05,39,0.80
2014,02,21,05,40,0.80
2014,02,21,05,41,0.80
2014,02,21,05,42,0.80
2014,02,21,05,43,0.80
2014,02,21,05,44,0.80
2014,02,21,05,45,0.80
2014,02,21,05,46,0.80
2014,02,21,05,47,0.80
2014,02,21,05,48,0.80
2014,02,21,05,49,0.80
2014,02,21,05,50,0.80
2014,02,21,05,51,0.80
2014,02,21,05,52,0.80
2014,02,21,05,53,0.80
2014,02,21,05,54,0.80
2014,02,21,05,55,0.80
2014,02,21,05,56,0.80
2014,02,21,05,57,0.70
2014,02,21,05,58,0.70
2014,02,21,05,59,0.70
2014,02,21,06,00,0.70
2014,02,21,06,01,0.70
2014,02,21,06,02,0.70
2014,02,21,06,03,0.60
2014,02,21,06,04,0.60
2014,02,21,06,05,0.60
2014,02,21,06,06,0.60
2014,02,21,06,07,0.50
2014,02,21,06,08,0.50
2014,02,21,06,09,0.50
2014,02,21,06,10,0.40
2014,02,21,06,11,0.40
2014,02,21,06,12,0.40
2014,02,21,06,13,0.40
2014,02,21,06,14,0.40
2014,02,21,06,15,0.40
2014,02,21,06,16,0.40
2014,02,21,06,17,0.40
2014,02,21,06,18,0.40
2014,02,21,06,19,0.40
2014,02,21,06,20,0.40
2014,02,21,06,21,0.40
2014,02,21,06,22,0.40
2014,02,21,06,23,0.40
2014,02,21,06,24,0.40
2014,02,21,06,25,0.40
2014,02,21,06,26,0.40
2014,02,21,06,27,0.40
2014,02,21,06,28,0.40
2014,02,21,06,29,0.40
2014,02,21,06,30,0.40
2014,02,21,06,31,0.40
2014,02,21,06,32,0.40
2014,02,21,06,33,0.40
2014,02,21,06,34,0.40
2014,02,21,06,35,0.40
2014,02,21,06,36,0.40
2014,02,21,06,37,0.40
2014,02,21,06,38,0.40
2014,02,21,06,39,0.40
2014,02,21,06,40,0.40
2014,02,21,06,41,0.40
2014,02,21,06,42,0.40
2014,02,21,06,43,0.40
2014,02,21,06,44,0.40
2014,02,21,06,45,0.40
2014,02,21,06,46,0.40
2014,02,21,06,47,0.40
2014,02,21,06,48,0.40
2014,02,21,06,49,0.40
2014,02,21,06,50,0.40
2014,02,21,06,51,0.40
2014,02,21,06,52,0.40
2014,02,21,06,53,0.40
2014,02,21,06,54,0.40
2014,02,21,06,55,0.40
2014,02,21,06,56,0.40
2014,02,21,06,57,0.40
2014,02,21,06,58,0.40
2014,02,21,06,59,0.40
2014,02,21,07,00,0.40
2014,02,21,07,01,0.40
2014,02,21,07,02,0.40
2014,02,21,07,03,0.40
2014,02,21,07,04,0.40
2014,02,21,07,05,0.40
2014,02,21,07,06,0.40
2014,02,21,07,07,0.50
2014,02,21,07,08,0.50
2014,02,21,07,09,0.50
2014,02,21,07,10,0.50
2014,02,21,07,11,0.50
2014,02,21,07,12,0.50
2014,02,21,07,13,0.50
2014,02,21,07,14,0.50
2014,02,21,07,15,0.50
2014,02,21,07,16,0.50
2014,02,21,07,17,0.50
2014,02,21,07,18,0.50
2014,02,21,07,19,0.50
2014,02,21,07,20,0.50
2014,02,21,07,21,0.50
2014,02,21,07,22,0.50
2014,02,21,07,23,0.50
2014,02,21,07,24,0.50
2014,02,21,07,25,0.50
2014,02,21,07,26,0.50
2014,02,21,07,27,0.50
2014,02,21,07,28,0.50
2014,02,21,07,29,0.50
2014,02,21,07,30,0.50
2014,02,21,07,31,0.50
2014,02,21,07,32,0.50
2014,02,21,07,33,0.50
2014,02,21,07,34,0.50
2014,02,21,07,35,0.50
2014,02,21,07,36,0.50
2014,02,21,07,37,0.50
2014,02,21,07,38,0.60
2014,02,21,07,39,0.50
2014,02,21,07,40,0.60
2014,02,21,07,41,0.60
2014,02,21,07,42,0.60
2014,02,21,07,43,0.60
2014,02,21,07,44,0.60
2014,02,21,07,45,0.60
2014,02,21,07,46,0.60
2014,02,21,07,47,0.60
2014,02,21,07,48,0.60
2014,02,21,07,49,0.60
2014,02,21,07,50,0.60
2014,02,21,07,51,0.60
2014,02,21,07,52,0.60
2014,02,21,07,53,0.60
2014,02,21,07,54,0.60
2014,02,21,07,55,0.70
2014,02,21,07,56,0.70
2014,02,21,07,57,0.70
2014,02,21,07,58,0.70
2014,02,21,07,59,0.70
2014,02,21,08,00,0.70
2014,02,21,08,01,0.70
2014,02,21,08,02,0.70
2014,02,21,08,03,0.80
2014,02,21,08,04,0.80
2014,02,21,08,05,0.80
2014,02,21,08,06,0.80
2014,02,21,08,07,0.90
2014,02,21,08,08,0.90
2014,02,21,08,09,0.90
2014,02,21,08,10,0.90
2014,02,21,08,11,1.00
2014,02,21,08,12,1.00
2014,02,21,08,13,1.00
2014,02,21,08,14,1.10
2014,02,21,08,15,1.10
2014,02,21,08,16,1.10
2014,02,21,08,17,1.10
2014,02,21,08,18,1.20
2014,02,21,08,19,1.20
2014,02,21,08,20,1.20
2014,02,21,08,21,1.20
2014,02,21,08,22,1.20
2014,02,21,08,23,1.20
2014,02,21,08,24,1.30
2014,02,21,08,25,1.30
2014,02,21,08,26,1.30
2014,02,21,08,27,1.30
2014,02,21,08,28,1.30
2014,02,21,08,29,1.40
2014,02,21,08,30,1.40
2014,02,21,08,31,1.40
2014,02,21,08,32,1.40
2014,02,21,08,33,1.40
2014,02,21,08,34,1.40
2014,02,21,08,35,1.40
2014,02,21,08,36,1.50
2014,02,21,08,37,1.50
2014,02,21,08,38,1.50
2014,02,21,08,39,1.50
2014,02,21,08,40,1.50
2014,02,21,08,41,1.50
2014,02,21,08,42,1.60
2014,02,21,08,43,1.60
2014,02,21,08,44,1.60
2014,02,21,08,45,1.60
2014,02,21,08,46,1.70
2014,02,21,08,47,1.70
2014,02,21,08,48,1.80
2014,02,21,08,49,1.80
2014,02,21,08,50,1.90
2014,02,21,08,51,1.90
2014,02,21,08,52,2.00
2014,02,21,08,53,2.00
2014,02,21,08,54,2.10
2014,02,21,08,55,2.10
2014,02,21,08,56,2.20
2014,02,21,08,57,2.20
2014,02,21,08,58,2.20
2014,02,21,08,59,2.20
2014,02,21,09,00,2.30
2014,02,21,09,01,2.30
2014,02,21,09,02,2.30
2014,02,21,09,03,2.40
2014,02,21,09,04,2.40
2014,02,21,09,05,2.40
2014,02,21,09,06,2.50
2014,02,21,09,07,2.50
2014,02,21,09,08,2.50
2014,02,21,09,09,2.60
2014,02,21,09,10,2.60
2014,02,21,09,11,2.60
2014,02,21,09,12,2.60
2014,02,21,09,13,2.70
2014,02,21,09,14,2.70
2014,02,21,09,15,2.70
2014,02,21,09,16,2.80
2014,02,21,09,17,2.80
2014,02,21,09,18,2.80
2014,02,21,09,19,2.90
2014,02,21,09,20,2.90
2014,02,21,09,21,3.00
2014,02,21,09,22,3.00
2014,02,21,09,23,3.10
2014,02,21,09,24,3.20
2014,02,21,09,25,3.20
2014,02,21,09,26,3.20
2014,02,21,09,27,3.30
2014,02,21,09,28,3.30
2014,02,21,09,29,3.30
2014,02,21,09,30,3.40
2014,02,21,09,31,3.40
2014,02,21,09,32,3.50
2014,02,21,09,33,3.50
2014,02,21,09,34,3.50
2014,02,21,09,35,3.60
2014,02,21,09,36,3.60
2014,02,21,09,37,3.70
2014,02,21,09,38,3.70
2014,02,21,09,39,3.70
2014,02,21,09,40,3.80
2014,02,21,09,41,3.80
2014,02,21,09,42,3.90
2014,02,21,09,43,3.90
2014,02,21,09,44,3.90
2014,02,21,09,45,4.00
2014,02,21,09,46,4.00
2014,02,21,09,47,4.10
2014,02,21,09,48,4.10
2014,02,21,09,49,4.20
2014,02,21,09,50,4.20
2014,02,21,09,51,4.30
2014,02,21,09,52,4.30
2014,02,21,09,53,4.30
2014,02,21,09,54,4.40
2014,02,21,09,55,4.40
2014,02,21,09,56,4.40
2014,02,21,09,57,4.40
2014,02,21,09,58,4.50
2014,02,21,09,59,4.50
2014,02,21,10,00,4.60
2014,02,21,10,01,4.60
2014,02,21,10,02,4.60
2014,02,21,10,03,4.60
2014,02,21,10,04,4.70
2014,02,21,10,05,4.70
2014,02,21,10,06,4.70
2014,02,21,10,07,4.70
2014,02,21,10,08,4.70
2014,02,21,10,09,4.80
2014,02,21,10,10,4.80
2014,02,21,10,11,4.80
2014,02,21,10,12,4.80
2014,02,21,10,13,4.80
2014,02,21,10,14,4.90
2014,02,21,10,15,4.90
2014,02,21,10,16,4.90
2014,02,21,10,17,4.90
2014,02,21,10,18,5.00
2014,02,21,10,19,5.00
2014,02,21,10,20,5.10
2014,02,21,10,21,5.10
2014,02,21,10,22,5.10
2014,02,21,10,23,5.10
2014,02,21,10,24,5.20
2014,02,21,10,25,5.20
2014,02,21,10,26,5.20
2014,02,21,10,27,5.30
2014,02,21,10,28,5.30
2014,02,21,10,29,5.30
2014,02,21,10,30,5.30
2014,02,21,10,31,5.30
2014,02,21,10,32,5.40
2014,02,21,10,33,5.40
2014,02,21,10,34,5.40
2014,02,21,10,35,5.50
2014,02,21,10,36,5.50
2014,02,21,10,37,5.60
2014,02,21,10,38,5.60
2014,02,21,10,39,5.60
2014,02,21,10,40,5.70
2014,02,21,10,41,5.70
2014,02,21,10,42,5.70
2014,02,21,10,43,5.70
2014,02,21,10,44,5.80
2014,02,21,10,45,5.80
2014,02,21,10,46,5.80
2014,02,21,10,47,5.90
2014,02,21,10,48,5.90
2014,02,21,10,49,6.00
2014,02,21,10,50,6.00
2014,02,21,10,51,6.10
2014,02,21,10,52,6.10
2014,02,21,10,53,6.20
2014,02,21,10,54,6.20
2014,02,21,10,55,6.20
2014,02,21,10,56,6.30
2014,02,21,10,57,6.30
2014,02,21,10,58,6.30
2014,02,21,10,59,6.40
2014,02,21,11,00,6.40
2014,02,21,11,01,6.40
2014,02,21,11,02,6.40
2014,02,21,11,03,6.50
2014,02,21,11,04,6.50
2014,02,21,11,05,6.50
2014,02,21,11,06,6.60
2014,02,21,11,07,6.60
2014,02,21,11,08,6.70
2014,02,21,11,09,6.70
2014,02,21,11,10,6.70
2014,02,21,11,11,6.80
2014,02,21,11,12,6.80
2014,02,21,11,13,6.90
2014,02,21,11,14,6.90
2014,02,21,11,15,6.90
2014,02,21,11,16,6.90
2014,02,21,11,17,6.90
2014,02,21,11,18,6.90
2014,02,21,11,19,6.90
2014,02,21,11,20,6.90
2014,02,21,11,21,6.90
2014,02,21,11,22,7.00
2014,02,21,11,23,7.00
2014,02,21,11,24,7.00
2014,02,21,11,25,7.00
2014,02,21,11,26,7.10
2014,02,21,11,27,7.10
2014,02,21,11,28,7.10
2014,02,21,11,29,7.10
2014,02,21,11,30,7.10
2014,02,21,11,31,7.10
2014,02,21,11,32,7.10
2014,02,21,11,33,7.10
2014,02,21,11,34,7.10
2014,02,21,11,35,7.10
2014,02,21,11,36,7.20
2014,02,21,11,37,7.20
2014,02,21,11,38,7.20
2014,02,21,11,39,7.20
2014,02,21,11,40,7.20
2014,02,21,11,41,7.20
2014,02,21,11,42,7.20
2014,02,21,11,43,7.20
2014,02,21,11,44,7.20
2014,02,21,11,45,7.20
2014,02,21,11,46,7.10
2014,02,21,11,47,7.10
2014,02,21,11,48,7.10
2014,02,21,11,49,7.20
2014,02,21,11,50,7.20
2014,02,21,11,51,7.20
2014,02,21,11,52,7.20
2014,02,21,11,53,7.20
2014,02,21,11,54,7.20
2014,02,21,11,55,7.20
2014,02,21,11,56,7.20
2014,02,21,11,57,7.30
2014,02,21,11,58,7.30
2014,02,21,11,59,7.30
2014,02,21,12,00,7.30
2014,02,21,12,01,7.30
2014,02,21,12,02,7.30
2014,02,21,12,03,7.30
2014,02,21,12,04,7.30
2014,02,21,12,05,7.30
2014,02,21,12,06,7.30
2014,02,21,12,07,7.30
2014,02,21,12,08,7.30
2014,02,21,12,09,7.30
2014,02,21,12,10,7.30
2014,02,21,12,11,7.30
2014,02,21,12,12,7.30
2014,02,21,12,13,7.30
2014,02,21,12,14,7.20
2014,02,21,12,15,7.20
2014,02,21,12,16,7.20
2014,02,21,12,17,7.20
2014,02,21,12,18,7.20
2014,02,21,12,19,7.20
2014,02,21,12,20,7.20
2014,02,21,12,21,7.20
2014,02,21,12,22,7.20
2014,02,21,12,23,7.10
2014,02,21,12,24,7.10
2014,02,21,12,25,7.10
2014,02,21,12,26,7.10
2014,02,21,12,27,7.10
2014,02,21,12,28,7.20
2014,02,21,12,29,7.20
2014,02,21,12,30,7.20
2014,02,21,12,31,7.20
2014,02,21,12,32,7.20
2014,02,21,12,33,7.20
2014,02,21,12,34,7.20
2014,02,21,12,35,7.20
2014,02,21,12,36,7.20
2014,02,21,12,37,7.20
2014,02,21,12,38,7.20
2014,02,21,12,39,7.20
2014,02,21,12,40,7.30
2014,02,21,12,41,7.30
2014,02,21,12,42,7.30
2014,02,21,12,43,7.30
2014,02,21,12,44,7.30
2014,02,21,12,45,7.40
2014,02,21,12,46,7.40
2014,02,21,12,47,7.40
2014,02,21,12,48,7.40
2014,02,21,12,49,7.50
2014,02,21,12,50,7.50
2014,02,21,12,51,7.50
2014,02,21,12,52,7.50
2014,02,21,12,53,7.50
2014,02,21,12,54,7.50
2014,02,21,12,55,7.50
2014,02,21,12,56,7.50
2014,02,21,12,57,7.50
2014,02,21,12,58,7.50
2014,02,21,12,59,7.50
2014,02,21,13,00,7.50
2014,02,21,13,01,7.50
2014,02,21,13,02,7.50
2014,02,21,13,03,7.50
2014,02,21,13,04,7.40
2014,02,21,13,05,7.40
2014,02,21,13,06,7.40
2014,02,21,13,07,7.40
2014,02,21,13,08,7.40
2014,02,21,13,09,7.40
2014,02,21,13,10,7.40
2014,02,21,13,11,7.40
2014,02,21,13,12,7.40
2014,02,21,13,13,7.40
2014,02,21,13,14,7.40
2014,02,21,13,15,7.40
2014,02,21,13,16,7.40
2014,02,21,13,17,7.30
2014,02,21,13,18,7.30
2014,02,21,13,19,7.30
2014,02,21,13,20,7.30
2014,02,21,13,21,7.20
2014,02,21,13,22,7.20
2014,02,21,13,23,7.20
2014,02,21,13,24,7.20
2014,02,21,13,25,7.20
2014,02,21,13,26,7.10
2014,02,21,13,27,7.10
2014,02,21,13,28,7.10
2014,02,21,13,29,7.10
2014,02,21,13,30,7.10
2014,02,21,13,31,7.10
2014,02,21,13,32,7.10
2014,02,21,13,33,7.10
2014,02,21,13,34,7.10
2014,02,21,13,35,7.10
2014,02,21,13,36,7.00
2014,02,21,13,37,7.00
2014,02,21,13,38,7.00
2014,02,21,13,39,7.00
2014,02,21,13,40,6.90
2014,02,21,13,41,6.90
2014,02,21,13,42,6.90
2014,02,21,13,43,6.90
2014,02,21,13,44,6.90
2014,02,21,13,45,6.80
2014,02,21,13,46,6.80
2014,02,21,13,47,6.80
2014,02,21,13,48,6.80
2014,02,21,13,49,6.80
2014,02,21,13,50,6.80
2014,02,21,13,51,6.80
2014,02,21,13,52,6.70
2014,02,21,13,53,6.70
2014,02,21,13,54,6.70
2014,02,21,13,55,6.70
2014,02,21,13,56,6.70
2014,02,21,13,57,6.70
2014,02,21,13,58,6.70
2014,02,21,13,59,6.70
2014,02,21,14,00,6.70
2014,02,21,14,01,6.70
2014,02,21,14,02,6.70
2014,02,21,14,03,6.70
2014,02,21,14,04,6.60
2014,02,21,14,05,6.60
2014,02,21,14,06,6.60
2014,02,21,14,07,6.60
2014,02,21,14,08,6.60
2014,02,21,14,09,6.60
2014,02,21,14,10,6.60
2014,02,21,14,11,6.60
2014,02,21,14,12,6.60
2014,02,21,14,13,6.50
2014,02,21,14,14,6.50
2014,02,21,14,15,6.50
2014,02,21,14,16,6.50
2014,02,21,14,17,6.50
2014,02,21,14,18,6.50
2014,02,21,14,19,6.50
2014,02,21,14,20,6.50
2014,02,21,14,21,6.50
2014,02,21,14,22,6.50
2014,02,21,14,23,6.50
2014,02,21,14,24,6.60
2014,02,21,14,25,6.50
2014,02,21,14,26,6.50
2014,02,21,14,27,6.50
2014,02,21,14,28,6.50
2014,02,21,14,29,6.50
2014,02,21,14,30,6.50
2014,02,21,14,31,6.50
2014,02,21,14,32,6.50
2014,02,21,14,33,6.50
2014,02,21,14,34,6.50
2014,02,21,14,35,6.50
2014,02,21,14,36,6.50
2014,02,21,14,37,6.50
2014,02,21,14,38,6.50
2014,02,21,14,39,6.50
2014,02,21,14,40,6.50
2014,02,21,14,41,6.50
2014,02,21,14,42,6.50
2014,02,21,14,43,6.60
2014,02,21,14,44,6.60
2014,02,21,14,45,6.60
2014,02,21,14,46,6.60
2014,02,21,14,47,6.60
2014,02,21,14,48,6.60
2014,02,21,14,49,6.60
2014,02,21,14,50,6.70
2014,02,21,14,51,6.70
2014,02,21,14,52,6.70
2014,02,21,14,53,6.70
2014,02,21,14,54,6.70
2014,02,21,14,55,6.70
2014,02,21,14,56,6.70
2014,02,21,14,57,6.70
2014,02,21,14,58,6.70
2014,02,21,14,59,6.70
2014,02,21,15,00,6.70
2014,02,21,15,01,6.70
2014,02,21,15,02,6.70
2014,02,21,15,03,6.70
2014,02,21,15,04,6.70
2014,02,21,15,05,6.70
2014,02,21,15,06,6.70
2014,02,21,15,07,6.70
2014,02,21,15,08,6.70
2014,02,21,15,09,6.70
2014,02,21,15,10,6.70
2014,02,21,15,11,6.70
2014,02,21,15,12,6.70
2014,02,21,15,13,6.70
2014,02,21,15,14,6.60
2014,02,21,15,15,6.60
2014,02,21,15,16,6.60
2014,02,21,15,17,6.60
2014,02,21,15,18,6.60
2014,02,21,15,19,6.50
2014,02,21,15,20,6.50
2014,02,21,15,21,6.50
2014,02,21,15,22,6.50
2014,02,21,15,23,6.50
2014,02,21,15,24,6.50
2014,02,21,15,25,6.50
2014,02,21,15,26,6.50
2014,02,21,15,27,6.50
2014,02,21,15,28,6.50
2014,02,21,15,29,6.50
2014,02,21,15,30,6.50
2014,02,21,15,31,6.50
2014,02,21,15,32,6.50
2014,02,21,15,33,6.50
2014,02,21,15,34,6.50
2014,02,21,15,35,6.50
2014,02,21,15,36,6.50
2014,02,21,15,37,6.50
2014,02,21,15,38,6.50
2014,02,21,15,39,6.50
2014,02,21,15,40,6.50
2014,02,21,15,41,6.50
2014,02,21,15,42,6.50
2014,02,21,15,43,6.50
2014,02,21,15,44,6.50
2014,02,21,15,45,6.40
2014,02,21,15,46,6.40
2014,02,21,15,47,6.40
2014,02,21,15,48,6.40
2014,02,21,15,49,6.40
2014,02,21,15,50,6.40
2014,02,21,15,51,6.40
2014,02,21,15,52,6.40
2014,02,21,15,53,6.40
2014,02,21,15,54,6.40
2014,02,21,15,55,6.40
2014,02,21,15,56,6.40
2014,02,21,15,57,6.40
2014,02,21,15,58,6.40
2014,02,21,15,59,6.40
2014,02,21,16,00,6.40
2014,02,21,16,01,6.40
2014,02,21,16,02,6.30
2014,02,21,16,03,6.30
2014,02,21,16,04,6.30
2014,02,21,16,05,6.30
2014,02,21,16,06,6.30
2014,02,21,16,07,6.30
2014,02,21,16,08,6.30
2014,02,21,16,09,6.30
2014,02,21,16,10,6.30
2014,02,21,16,11,6.30
2014,02,21,16,12,6.30
2014,02,21,16,13,6.30
2014,02,21,16,14,6.30
2014,02,21,16,15,6.30
2014,02,21,16,16,6.30
2014,02,21,16,17,6.30
2014,02,21,16,18,6.30
2014,02,21,16,19,6.30
2014,02,21,16,20,6.30
2014,02,21,16,21,6.30
2014,02,21,16,22,6.30
2014,02,21,16,23,6.30
2014,02,21,16,24,6.30
2014,02,21,16,25,6.20
2014,02,21,16,26,6.20
2014,02,21,16,27,6.20
2014,02,21,16,28,6.20
2014,02,21,16,29,6.20
2014,02,21,16,30,6.20
2014,02,21,16,31,6.20
2014,02,21,16,32,6.20
2014,02,21,16,33,6.20
2014,02,21,16,34,6.20
2014,02,21,16,35,6.20
2014,02,21,16,36,6.20
2014,02,21,16,37,6.20
2014,02,21,16,38,6.20
2014,02,21,16,39,6.10
2014,02,21,16,40,6.10
2014,02,21,16,41,6.10
2014,02,21,16,42,6.10
2014,02,21,16,43,6.10
2014,02,21,16,44,6.10
2014,02,21,16,45,6.10
2014,02,21,16,46,6.10
2014,02,21,16,47,6.10
2014,02,21,16,48,6.10
2014,02,21,16,49,6.00
2014,02,21,16,50,6.10
2014,02,21,16,51,6.00
2014,02,21,16,52,6.00
2014,02,21,16,53,6.00
2014,02,21,16,54,6.00
2014,02,21,16,55,6.00
2014,02,21,16,56,5.90
2014,02,21,16,57,5.90
2014,02,21,16,58,5.90
2014,02,21,16,59,5.90
2014,02,21,17,00,5.90
2014,02,21,17,01,5.90
2014,02,21,17,02,5.90
2014,02,21,17,03,5.90
2014,02,21,17,04,5.80
2014,02,21,17,05,5.80
2014,02,21,17,06,5.80
2014,02,21,17,07,5.80
2014,02,21,17,08,5.80
2014,02,21,17,09,5.80
2014,02,21,17,10,5.80
2014,02,21,17,11,5.80
2014,02,21,17,12,5.80
2014,02,21,17,13,5.80
2014,02,21,17,14,5.80
2014,02,21,17,15,5.70
2014,02,21,17,16,5.70
2014,02,21,17,17,5.70
2014,02,21,17,18,5.70
2014,02,21,17,19,5.70
2014,02,21,17,20,5.70
2014,02,21,17,21,5.60
2014,02,21,17,22,5.60
2014,02,21,17,23,5.60
2014,02,21,17,24,5.60
2014,02,21,17,25,5.60
2014,02,21,17,26,5.60
2014,02,21,17,27,5.50
2014,02,21,17,28,5.50
2014,02,21,17,29,5.50
2014,02,21,17,30,5.50
2014,02,21,17,31,5.40
2014,02,21,17,32,5.40
2014,02,21,17,33,5.40
2014,02,21,17,34,5.40
2014,02,21,17,35,5.40
2014,02,21,17,36,5.30
2014,02,21,17,37,5.30
2014,02,21,17,38,5.30
2014,02,21,17,39,5.30
2014,02,21,17,40,5.20
2014,02,21,17,41,5.20
2014,02,21,17,42,5.20
2014,02,21,17,43,5.20
2014,02,21,17,44,5.10
2014,02,21,17,45,5.10
2014,02,21,17,46,5.10
2014,02,21,17,47,5.00
2014,02,21,17,48,5.00
2014,02,21,17,49,5.00
2014,02,21,17,50,4.90
2014,02,21,17,51,4.90
2014,02,21,17,52,4.90
2014,02,21,17,53,4.90
2014,02,21,17,54,4.80
2014,02,21,17,55,4.80
2014,02,21,17,56,4.80
2014,02,21,17,57,4.70
2014,02,21,17,58,4.70
2014,02,21,17,59,4.70
2014,02,21,18,00,4.60
2014,02,21,18,01,4.60
2014,02,21,18,02,4.60
2014,02,21,18,03,4.50
2014,02,21,18,04,4.50
2014,02,21,18,05,4.40
2014,02,21,18,06,4.40